ABOUT US
vACC Philippines is a recognized member of the VATSIM network. We are dedicated to enchancing the online experience of both local and international virtual pilots. Mandated to provide professional and realistic air traffic operations.

vACC Philippines aims to provide the most realistic air traffic system simulation service that is close to the real thing as possible when flying on the VATSIM network.


METARS

RPLL 270900Z 24003KT 210V270 8000 SCT022 BKN090 28/26 Q1010 NOSIG RMK A2983


RPVM 270900Z 01009KT 9999 FEW020 OVC100 28/24 Q1008 RMK A2977


RPMD 270900Z 02005KT 8000 -SHRA FEW015CB BKN090 OVC260 26/24 Q1008 RMK A2977 CB N,E,SE



AIRFIELDS COVERED


Manila (RPLL)

Subic Bay (RPLB)

Mactan-Cebu (RPVM)

Clark (RPLC)

Laoag (RPLI)


Davao (RPMD)


Bacolod (RPVB)


Zamboanga (RPMZ)


General Santos (RPMR)


Iloilo (RPVI)


Kalibo (RPVK)


Legazpi (RPLP)


Puerto Princesa (RPVP)